This is the latest recevied weather packets stored in our database for station/object KC3SOZ. If no packets are shown the sender has not sent any weather packets the latest 10 day(s).
| Time | Temp. | Humidity | Pressure | Rain* | Wind** | Luminosity | Snow |
|---|---|---|---|---|---|---|---|
| 1777384946 | 11.11° C | 77% | 1021.7 hPa | 0 mm | - | 87 W/m² | - |
| 1777384644 | 11.11° C | 77% | 1021.7 hPa | 0 mm | - | 83 W/m² | - |
| 1777384344 | 11.11° C | 78% | 1021.5 hPa | 0 mm | - | 82 W/m² | - |
| 1777384040 | 11.11° C | 77% | 1021.4 hPa | 0 mm | - | 89 W/m² | - |
| 1777383736 | 11.11° C | 78% | 1021.4 hPa | 0 mm | - | 94 W/m² | - |
| 1777383433 | 10.56° C | 79% | 1021.4 hPa | 0 mm | - | 87 W/m² | - |
| 1777383128 | 10.56° C | 79% | 1021.3 hPa | 0 mm | - | 79 W/m² | - |
| 1777382826 | 10.56° C | 79% | 1021.2 hPa | 0 mm | - | 78 W/m² | - |
| 1777382521 | 10.56° C | 81% | 1021.2 hPa | 0 mm | - | 78 W/m² | - |
| 1777382217 | 10.56° C | 80% | 1021.1 hPa | 0 mm | - | 75 W/m² | - |
| 1777381914 | 10.56° C | 80% | 1021.4 hPa | 0 mm | - | 74 W/m² | - |
| 1777381613 | 10.56° C | 79% | 1021.3 hPa | 0 mm | - | 76 W/m² | - |
| 1777381310 | 10.56° C | 80% | 1021.7 hPa | 0 mm | - | 83 W/m² | - |
| 1777381006 | 10.56° C | 79% | 1021.4 hPa | 0 mm | - | 91 W/m² | - |
| 1777380703 | 10.56° C | 79% | 1021.6 hPa | 0 mm | - | 98 W/m² | - |
| 1777380399 | 10.56° C | 79% | 1021.7 hPa | 0 mm | - | 112 W/m² | - |
| 1777380095 | 10.56° C | 78% | 1021.7 hPa | 0 mm | - | 130 W/m² | - |
| 1777379792 | 11.11° C | 81% | 1021.8 hPa | 0 mm | - | 145 W/m² | - |
| 1777379487 | 11.11° C | 78% | 1021.7 hPa | 0 mm | - | 160 W/m² | - |
| 1777379183 | 11.11° C | 78% | 1021.9 hPa | 0 mm | - | 156 W/m² | - |
| 1777378878 | 11.11° C | 78% | 1021.8 hPa | 0 mm | - | 152 W/m² | - |
| 1777378574 | 11.11° C | 79% | 1021.7 hPa | 0 mm | - | 152 W/m² | - |
| 1777378270 | 10.56° C | 79% | 1021.4 hPa | 0 mm | - | 153 W/m² | - |
* Rain latest hour (hover to see other rain measurements)
** Current wind speed in m/s (hover to see current wind gust speed)